When you browse on this site, cookies collect data to enhance your experience and personalize the content and advertising you see.
Visit our Privacy Policy to learn more. By continuing to use the site, you agree to this use of cookies and data.
  • In Romania
  • List of Countries
  • For 7 days
  • Water Temperature
  • Satellite Maps
  • Weather Map
  • Weather Widgets
  • user-avatar
    Login

    Hourly Weather Mongo

    Today, 20 May, Monday

    Time Temperature Precipitation Wind Pressure Humidity
    00:00 +38°C° 0 mm 2 mps 717 mmHg 25%
    01:00 +36°C° 0 mm 2 mps 717 mmHg 32%
    02:00 +36°C° 0 mm 2 mps 717 mmHg 34%
    03:00 +36°C° 0 mm 2 mps 717 mmHg 35%
    04:00 +35°C° 0 mm 2 mps 717 mmHg 36%
    05:00 +36°C° 0 mm 2 mps 718 mmHg 34%
    06:00 +37°C° 0 mm 2 mps 718 mmHg 32%
    07:00 +38°C° 0 mm 2 mps 719 mmHg 30%
    08:00 +39°C° 0 mm 3 mps 719 mmHg 28%
    09:00 +42°C° 0 mm 3 mps 719 mmHg 25%
    10:00 +43°C° 0 mm 4 mps 719 mmHg 23%
    11:00 +43°C° 0 mm 3 mps 719 mmHg 22%
    12:00 +42°C° 0 mm 2 mps 718 mmHg 20%
    13:00 +42°C° 0 mm 1 mps 718 mmHg 21%
    14:00 +42°C° 0.2 mm 3 mps 718 mmHg 23%
    15:00 +42°C° 0.2 mm 4 mps 718 mmHg 26%
    16:00 +41°C° 0.2 mm 5 mps 717 mmHg 28%
    17:00 +41°C° 0 mm 5 mps 717 mmHg 28%
    18:00 +40°C° 0 mm 5 mps 718 mmHg 29%
    19:00 +38°C° 0 mm 4 mps 718 mmHg 30%
    20:00 +38°C° 0 mm 4 mps 718 mmHg 30%
    21:00 +37°C° 0 mm 4 mps 718 mmHg 31%
    22:00 +37°C° 0 mm 4 mps 719 mmHg 31%
    23:00 +36°C° 0 mm 3 mps 719 mmHg 34%

    Tomorrow, 21 May, Tuesday

    Time Temperature Precipitation Wind Pressure Humidity
    00:00 +36°C° 0 mm 2 mps 718 mmHg 36%
    01:00 +34°C° 0 mm 1 mps 718 mmHg 38%
    02:00 +34°C° 0 mm 1 mps 718 mmHg 39%
    03:00 +34°C° 0 mm 1 mps 718 mmHg 39%
    04:00 +33°C° 0 mm 1 mps 718 mmHg 40%
    05:00 +35°C° 0 mm 2 mps 718 mmHg 40%
    06:00 +35°C° 0 mm 3 mps 719 mmHg 40%
    07:00 +35°C° 0 mm 4 mps 719 mmHg 39%
    08:00 +37°C° 0 mm 3 mps 719 mmHg 36%
    09:00 +38°C° 0 mm 3 mps 720 mmHg 32%
    10:00 +40°C° 0 mm 2 mps 720 mmHg 29%
    11:00 +40°C° 0 mm 2 mps 720 mmHg 27%
    12:00 +41°C° 0 mm 1 mps 719 mmHg 25%
    13:00 +39°C° 0 mm 0 mps 719 mmHg 23%
    14:00 +40°C° 0.5 mm 2 mps 718 mmHg 27%
    15:00 +39°C° 0.5 mm 3 mps 717 mmHg 31%
    16:00 +37°C° 0.5 mm 5 mps 717 mmHg 35%
    17:00 +37°C° 0.3 mm 5 mps 717 mmHg 37%
    18:00 +36°C° 0.3 mm 4 mps 717 mmHg 39%
    19:00 +35°C° 0.3 mm 4 mps 717 mmHg 40%
    20:00 +35°C° 0 mm 4 mps 717 mmHg 41%
    21:00 +35°C° 0 mm 3 mps 718 mmHg 41%
    22:00 +35°C° 0 mm 3 mps 718 mmHg 41%
    23:00 +34°C° 0 mm 3 mps 718 mmHg 42%

    Day after tomorrow, 22 May, Wednesday

    Time Temperature Precipitation Wind Pressure Humidity
    00:00 +34°C° 0 mm 3 mps 718 mmHg 42%
    01:00 +34°C° 0 mm 2 mps 717 mmHg 42%
    02:00 +33°C° 0 mm 3 mps 718 mmHg 42%
    03:00 +33°C° 0 mm 4 mps 718 mmHg 42%
    04:00 +33°C° 0 mm 5 mps 718 mmHg 42%
    05:00 +33°C° 0 mm 5 mps 718 mmHg 45%
    06:00 +33°C° 0 mm 5 mps 719 mmHg 48%
    07:00 +33°C° 0 mm 5 mps 720 mmHg 50%
    08:00 +35°C° 0 mm 5 mps 720 mmHg 43%
    09:00 +37°C° 0 mm 5 mps 720 mmHg 36%
    10:00 +40°C° 0 mm 5 mps 721 mmHg 29%
    11:00 +41°C° 0 mm 4 mps 720 mmHg 27%
    12:00 +41°C° 0 mm 4 mps 719 mmHg 25%
    13:00 +42°C° 0 mm 3 mps 719 mmHg 23%
    14:00 +42°C° 0 mm 3 mps 718 mmHg 23%
    15:00 +41°C° 0 mm 2 mps 718 mmHg 23%
    16:00 +41°C° 0 mm 2 mps 717 mmHg 23%
    17:00 +40°C° 0 mm 2 mps 717 mmHg 25%
    18:00 +39°C° 0 mm 3 mps 717 mmHg 27%
    19:00 +39°C° 0 mm 3 mps 718 mmHg 29%
    20:00 +38°C° 0 mm 3 mps 718 mmHg 32%
    21:00 +37°C° 0 mm 4 mps 719 mmHg 35%
    22:00 +36°C° 0 mm 4 mps 719 mmHg 38%
    23:00 +36°C° 0 mm 4 mps 719 mmHg 38%

    23 May, Thursday

    Time Temperature Precipitation Wind Pressure Humidity
    00:00 +36°C° 0 mm 4 mps 718 mmHg 38%
    01:00 +35°C° 0 mm 4 mps 718 mmHg 38%
    02:00 +35°C° 0 mm 3 mps 718 mmHg 38%
    03:00 +35°C° 0 mm 3 mps 718 mmHg 38%
    04:00 +35°C° 0 mm 2 mps 717 mmHg 38%
    05:00 +35°C° 0 mm 2 mps 718 mmHg 37%
    06:00 +36°C° 0 mm 2 mps 718 mmHg 37%
    07:00 +36°C° 0 mm 2 mps 719 mmHg 36%
    08:00 +37°C° 0 mm 2 mps 719 mmHg 33%
    09:00 +39°C° 0 mm 2 mps 720 mmHg 30%
    10:00 +40°C° 0 mm 3 mps 720 mmHg 27%
    11:00 +40°C° 0 mm 3 mps 719 mmHg 26%
    12:00 +42°C° 0 mm 3 mps 719 mmHg 25%
    13:00 +43°C° 0 mm 4 mps 718 mmHg 24%
    14:00 +42°C° 0 mm 4 mps 718 mmHg 24%
    15:00 +42°C° 0 mm 4 mps 717 mmHg 25%
    16:00 +42°C° 0 mm 3 mps 716 mmHg 25%
    17:00 +40°C° 0 mm 3 mps 717 mmHg 26%
    18:00 +40°C° 0 mm 2 mps 717 mmHg 27%
    19:00 +39°C° 0 mm 2 mps 718 mmHg 28%
    20:00 +39°C° 0 mm 2 mps 718 mmHg 29%
    21:00 +38°C° 0 mm 2 mps 718 mmHg 30%
    22:00 +37°C° 0 mm 2 mps 718 mmHg 31%
    23:00 +37°C° 0 mm 2 mps 718 mmHg 34%

    24 May, Friday

    Time Temperature Precipitation Wind Pressure Humidity
    00:00 +36°C° 0 mm 2 mps 717 mmHg 36%
    01:00 +35°C° 0 mm 3 mps 717 mmHg 39%
    02:00 +35°C° 0 mm 2 mps 717 mmHg 41%
    03:00 +34°C° 0 mm 2 mps 717 mmHg 43%
    04:00 +34°C° 0 mm 2 mps 716 mmHg 45%
    05:00 +34°C° 0 mm 2 mps 717 mmHg 42%
    06:00 +35°C° 0 mm 2 mps 718 mmHg 40%
    07:00 +36°C° 0 mm 2 mps 718 mmHg 38%
    08:00 +37°C° 0 mm 3 mps 719 mmHg 34%
    09:00 +39°C° 0 mm 3 mps 719 mmHg 30%
    10:00 +42°C° 0 mm 4 mps 719 mmHg 25%
    11:00 +43°C° 0 mm 3 mps 719 mmHg 22%
    12:00 +44°C° 0 mm 3 mps 718 mmHg 19%
    13:00 +43°C° 0 mm 2 mps 717 mmHg 16%
    14:00 +43°C° 0 mm 2 mps 717 mmHg 16%
    15:00 +43°C° 0 mm 1 mps 716 mmHg 15%
    16:00 +43°C° 0 mm 1 mps 716 mmHg 14%
    17:00 +42°C° 0 mm 1 mps 716 mmHg 15%
    18:00 +42°C° 0 mm 2 mps 716 mmHg 16%
    19:00 +41°C° 0 mm 2 mps 717 mmHg 17%
    20:00 +40°C° 0 mm 2 mps 717 mmHg 18%
    21:00 +39°C° 0 mm 2 mps 717 mmHg 20%
    22:00 +37°C° 0 mm 1 mps 717 mmHg 21%
    23:00 +37°C° 0 mm 1 mps 716 mmHg 23%

    25 May, Saturday

    Time Temperature Precipitation Wind Pressure Humidity
    00:00 +36°C° 0 mm 1 mps 716 mmHg 24%
    01:00 +35°C° 0 mm 1 mps 716 mmHg 26%
    02:00 +36°C° 0 mm 2 mps 716 mmHg 29%
    03:00 +35°C° 0 mm 3 mps 716 mmHg 32%
    04:00 +35°C° 0 mm 4 mps 717 mmHg 35%
    05:00 +35°C° 0 mm 4 mps 717 mmHg 36%
    06:00 +36°C° 0 mm 4 mps 718 mmHg 37%
    07:00 +36°C° 0 mm 4 mps 719 mmHg 38%
    08:00 +38°C° 0 mm 4 mps 719 mmHg 34%
    09:00 +40°C° 0 mm 5 mps 719 mmHg 30%
    10:00 +42°C° 0 mm 5 mps 719 mmHg 26%
    11:00 +43°C° 0 mm 5 mps 719 mmHg 24%
    12:00 +44°C° 0 mm 4 mps 718 mmHg 22%
    13:00 +44°C° 0 mm 4 mps 717 mmHg 20%
    14:00 +44°C° 0 mm 4 mps 717 mmHg 20%
    15:00 +44°C° 0 mm 4 mps 716 mmHg 21%
    16:00 +43°C° 0 mm 3 mps 716 mmHg 21%
    17:00 +43°C° 0 mm 3 mps 716 mmHg 22%
    18:00 +42°C° 0 mm 3 mps 716 mmHg 22%
    19:00 +41°C° 0 mm 2 mps 717 mmHg 23%
    20:00 +40°C° 0 mm 3 mps 717 mmHg 24%
    21:00 +40°C° 0 mm 3 mps 717 mmHg 26%
    22:00 +39°C° 0 mm 3 mps 717 mmHg 28%
    23:00 +38°C° 0 mm 3 mps 717 mmHg 30%
    Show more